Flag for Norway Weather past 2 weeks in Langevåg, Norway

Now
41 °F

Passing clouds.


Feels Like: 33 °F
Forecast: 38 / 44 °F
Wind: 16 mph from Southwest

Location: Alesund / Vigra

Current Time: Mar 28, 2015 at 5:10:27 AM

Latest Report: Mar 28, 2015 at 4:20 AM


Visibility: N/A

Pressure: 29.74 "Hg

Humidity: 76%

Dew point: 34 °F

Location of LangevågLocation

Historic Weather in Langevåg — Graph

°F

Langevåg temperature yesterday

Maximum temperature yesterday: 45 °F (at 12:20 PM)
Minimum temperature yesterday: 34 °F (at 1:50 AM)
Average temperature yesterday: 41 °F

Past Weeks' High & Low Weather Summary

 TemperatureHumidityPressure
High54 °F (Mar 16, 1:50 PM)100% (Mar 19, 8:50 PM)30.77 "Hg (Mar 19, 8:50 PM)
Low30 °F (Mar 14, 8:50 PM)28% (Mar 15, 4:20 PM)29.21 "Hg (Mar 23, 9:50 AM)
Average41 °F69%30.19 "Hg
* Reported Mar 13 3:20 AM — Mar 28 3:50 AM, Langevåg, Weather by CustomWeather, © 2015

Note: Actual official high and low records may vary slightly from our data, if they occured in-between our weather recording intervals... More about our weather records

Advertising

Langevåg weather history for previous 24 hours

 ConditionsComfort  
Time TempWeatherWind HumidityBarometerVisibility
3:50 AM
Sat, Mar 28
41 °FLight rain. Passing clouds.17 mph76%29.74 "HgN/A
3:20 AM43 °FOvercast.15 mph61%29.74 "HgN/A
2:50 AM43 °FMostly cloudy.16 mph61%29.74 "HgN/A
2:20 AM43 °FMostly cloudy.10 mph61%29.74 "HgN/A
1:50 AM43 °FPassing clouds.15 mph66%29.77 "HgN/A
1:20 AM41 °FMostly cloudy.12 mph66%29.77 "HgN/A
12:50 AM41 °FPassing clouds.13 mph70%29.77 "HgN/A
12:20 AM41 °FPassing clouds.14 mph70%29.80 "HgN/A
11:50 PM
Fri, Mar 27
41 °FQuite cool.12 mph70%29.80 "HgN/A
11:20 PM41 °FClear.13 mph70%29.80 "Hg10 mi
10:50 PM41 °FClear.12 mph76%29.80 "Hg10 mi
10:20 PM41 °FClear.12 mph76%29.80 "Hg10 mi
9:50 PM41 °FPassing clouds.12 mph76%29.80 "HgN/A
9:20 PM41 °FPassing clouds.15 mph76%29.80 "HgN/A
8:20 PM41 °FPassing clouds.17 mph76%29.77 "HgN/A
7:50 PM43 °FPassing clouds.14 mph71%29.77 "HgN/A
7:20 PM43 °FPassing clouds.15 mph66%29.77 "HgN/A
6:50 PM45 °FPartly sunny.15 mph53%29.77 "HgN/A
6:20 PM45 °FPartly sunny.10 mph57%29.77 "HgN/A
5:50 PM45 °FPartly sunny.12 mph57%29.74 "HgN/A
5:20 PM45 °FPartly sunny.10 mph61%29.77 "HgN/A
4:50 PM45 °FPartly sunny.9 mph57%29.77 "HgN/A
4:20 PM45 °FPartly sunny.10 mph66%29.77 "HgN/A
3:50 PM45 °FPartly sunny.10 mph61%29.77 "HgN/A
3:20 PM45 °FScattered clouds.12 mph61%29.77 "HgN/A
2:50 PM45 °FPartly sunny.14 mph57%29.77 "HgN/A
2:20 PM45 °FPartly sunny.14 mph57%29.77 "HgN/A
1:50 PM45 °FPartly sunny.14 mph53%29.77 "HgN/A
1:20 PM45 °FPartly sunny.14 mph53%29.77 "HgN/A
12:50 PM45 °FPassing clouds.12 mph53%29.77 "HgN/A
12:20 PM45 °FScattered clouds.10 mph53%29.77 "HgN/A
11:50 AM43 °FScattered clouds.10 mph57%29.77 "HgN/A
11:20 AM43 °FScattered clouds.8 mph53%29.77 "HgN/A
10:50 AM43 °FScattered clouds.10 mph53%29.77 "HgN/A
10:20 AM43 °FPassing clouds.12 mph53%29.77 "HgN/A
9:50 AM41 °FPartly sunny.10 mph57%29.77 "HgN/A
8:50 AM39 °FPartly sunny.9 mph61%29.77 "HgN/A
8:20 AM39 °FPartly sunny.8 mph61%29.77 "HgN/A
7:50 AM37 °FPartly sunny.8 mph70%29.77 "HgN/A
7:20 AM37 °FPartly sunny.7 mph70%29.77 "HgN/A
6:50 AM36 °FPartly sunny.7 mph75%29.77 "HgN/A
6:20 AM36 °FBroken clouds.7 mph75%29.74 "HgN/A
5:50 AM36 °FPartly cloudy.7 mph75%29.74 "HgN/A
5:20 AM36 °FPartly cloudy.8 mph70%29.74 "HgN/A
Weather by CustomWeather, © 2015

See weather overviewHow to use our weather pages